Tracking 19193 objects as of 24-Jun-2018
HD Live streaming from Space Station
objects crossing your sky now

FENGYUN 1C DEB

Track FENGYUN 1C DEB now!
10-day predictions


NORAD ID: 37432
Int'l Code: 1999-025EHA
Perigee: 611.6 km
Apogee: 926.5 km
Inclination: 98.5 °
Period: 100.1 minutes
Semi major axis: 7140 km
RCS: 0.0049 m2 (small)
Launch date: May 10, 1999
Source: People's Republic of China (PRC)
Launch site: Taiyaun Space Center, China (TSC)

Note: This is SATELLITE DEBRIS
aabbcc
Your satellite tracking list
Your tracking list is empty




NASA's NSSDC Master Catalog

Two Line Element Set (TLE):
1 37432U 99025EHA 18174.90534812  .00000370  00000-0  10401-3 0  9996
2 37432  98.4575 220.4684 0220529 265.8300  91.7659 14.38977444560042
Source of the keplerian elements: AFSPC